Time,TemperatureF,DewpointF,PressureIn,WindDirection,WindDirectionDegrees,WindSpeedMPH,WindSpeedGustMPH,Humidity,HourlyPrecipIn,Conditions,Clouds,dailyrainin,SoftwareType,DateUTC
2013-05-22 00:00:00,51.2,36.0,29.93,ENE,69,0.0,4.0,57,0.00,,,0.00,weatherlink.com 1.10,2013-05-22 07:00:00,
2013-05-22 00:15:00,51.7,36.0,29.93,NE,54,0.0,9.0,55,0.00,,,0.00,weatherlink.com 1.10,2013-05-22 07:15:00,
2013-05-22 00:30:00,50.3,35.0,29.95,SW,221,0.0,1.0,57,0.00,,,0.00,weatherlink.com 1.10,2013-05-22 07:30:00,
2013-05-22 00:45:00,49.5,34.0,29.95,East,87,0.0,3.0,56,0.00,,,0.00,weatherlink.com 1.10,2013-05-22 07:45:00,
2013-05-22 01:00:00,49.0,34.0,29.95,North,5,0.0,1.0,57,0.00,,,0.00,weatherlink.com 1.10,2013-05-22 08:00:00,
2013-05-22 01:15:00,48.4,34.0,29.95,SE,146,2.0,2.0,57,0.00,,,0.00,weatherlink.com 1.10,2013-05-22 08:15:00,
2013-05-22 01:30:00,49.6,33.0,29.96,ESE,105,0.0,6.0,53,0.00,,,0.00,weatherlink.com 1.10,2013-05-22 08:30:00,
2013-05-22 01:45:00,50.8,32.0,29.95,NE,37,3.0,13.0,49,0.00,,,0.00,weatherlink.com 1.10,2013-05-22 08:45:00,
2013-05-22 02:00:00,51.3,31.0,29.96,ENE,58,2.0,11.0,47,0.00,,,0.00,weatherlink.com 1.10,2013-05-22 09:00:00,
2013-05-22 02:15:00,50.6,31.0,29.96,North,356,1.0,9.0,48,0.00,,,0.00,weatherlink.com 1.10,2013-05-22 09:15:00,
2013-05-22 02:30:00,50.1,31.0,29.96,ENE,65,3.0,7.0,49,0.00,,,0.00,weatherlink.com 1.10,2013-05-22 09:30:00,
2013-05-22 02:45:00,49.6,31.0,29.97,NNE,14,1.0,7.0,49,0.00,,,0.00,weatherlink.com 1.10,2013-05-22 09:45:00,
2013-05-22 03:00:00,49.2,31.0,29.96,NE,43,4.0,7.0,50,0.00,,,0.00,weatherlink.com 1.10,2013-05-22 10:00:00,
2013-05-22 03:16:00,49.1,30.0,29.96,NE,39,1.0,8.0,49,0.00,,,0.00,weatherlink.com 1.10,2013-05-22 10:16:00,
2013-05-22 03:31:00,49.2,31.0,29.95,East,93,6.0,12.0,49,0.00,,,0.00,weatherlink.com 1.10,2013-05-22 10:31:00,
2013-05-22 03:46:00,49.4,30.0,29.95,North,2,12.0,15.0,48,0.00,,,0.00,weatherlink.com 1.10,2013-05-22 10:46:00,
2013-05-22 04:01:00,49.3,30.0,29.95,NNE,23,5.0,14.0,48,0.00,,,0.00,weatherlink.com 1.10,2013-05-22 11:01:00,
2013-05-22 04:16:00,49.0,30.0,29.96,NNE,24,8.0,10.0,48,0.00,,,0.00,weatherlink.com 1.10,2013-05-22 11:16:00,
2013-05-22 04:31:00,49.0,29.0,29.96,NE,40,2.0,10.0,47,0.00,,,0.00,weatherlink.com 1.10,2013-05-22 11:31:00,
2013-05-22 04:46:00,48.8,29.0,29.96,NNW,340,1.0,9.0,47,0.00,,,0.00,weatherlink.com 1.10,2013-05-22 11:46:00,
2013-05-22 05:01:00,48.6,29.0,29.96,NNW,346,3.0,10.0,47,0.00,,,0.00,weatherlink.com 1.10,2013-05-22 12:01:00,
2013-05-22 05:16:00,48.7,29.0,29.96,NE,51,4.0,11.0,46,0.00,,,0.00,weatherlink.com 1.10,2013-05-22 12:16:00,
2013-05-22 05:31:00,48.6,28.0,29.96,North,1,4.0,15.0,46,0.00,,,0.00,weatherlink.com 1.10,2013-05-22 12:31:00,
2013-05-22 05:46:00,48.5,29.0,29.97,NE,47,6.0,12.0,47,0.00,,,0.00,weatherlink.com 1.10,2013-05-22 12:46:00,
2013-05-22 06:01:00,48.8,29.0,29.96,ENE,72,1.0,11.0,46,0.00,,,0.00,weatherlink.com 1.10,2013-05-22 13:01:00,
2013-05-22 06:16:00,48.6,28.0,29.97,WNW,297,0.0,10.0,46,0.00,,,0.00,weatherlink.com 1.10,2013-05-22 13:16:00,
2013-05-22 06:31:00,48.6,29.0,29.98,South,184,1.0,8.0,47,0.00,,,0.00,weatherlink.com 1.10,2013-05-22 13:31:00,
2013-05-22 06:46:00,48.9,30.0,29.97,NE,40,6.0,14.0,48,0.00,,,0.00,weatherlink.com 1.10,2013-05-22 13:46:00,
2013-05-22 07:01:00,49.3,30.0,29.98,North,8,6.0,14.0,48,0.00,,,0.00,weatherlink.com 1.10,2013-05-22 14:01:00,
2013-05-22 07:16:00,49.6,30.0,29.97,ENE,65,9.0,16.0,47,0.00,,,0.00,weatherlink.com 1.10,2013-05-22 14:16:00,
2013-05-22 07:31:00,49.9,30.0,29.98,NE,53,7.0,16.0,47,0.00,,,0.00,weatherlink.com 1.10,2013-05-22 14:31:00,
2013-05-22 07:46:00,50.3,31.0,29.98,NE,39,6.0,15.0,47,0.00,,,0.00,weatherlink.com 1.10,2013-05-22 14:46:00,
2013-05-22 08:01:00,50.9,31.0,29.98,NE,35,7.0,16.0,46,0.00,,,0.00,weatherlink.com 1.10,2013-05-22 15:01:00,
2013-05-22 08:16:00,52.6,31.0,29.98,NW,321,6.0,14.0,44,0.00,,,0.00,weatherlink.com 1.10,2013-05-22 15:16:00,
2013-05-22 08:31:00,53.7,31.0,29.98,NE,54,2.0,14.0,42,0.00,,,0.00,weatherlink.com 1.10,2013-05-22 15:31:00,
2013-05-22 08:46:00,54.9,31.0,29.98,NNE,29,5.0,11.0,41,0.00,,,0.00,weatherlink.com 1.10,2013-05-22 15:46:00,
2013-05-22 09:01:00,56.1,32.0,29.98,ENE,77,0.0,9.0,40,0.00,,,0.00,weatherlink.com 1.10,2013-05-22 16:01:00,
2013-05-22 09:16:00,57.4,31.0,29.99,NE,53,3.0,8.0,37,0.00,,,0.00,weatherlink.com 1.10,2013-05-22 16:16:00,
2013-05-22 09:31:00,58.3,31.0,29.98,NE,37,0.0,9.0,36,0.00,,,0.00,weatherlink.com 1.10,2013-05-22 16:31:00,
2013-05-22 09:46:00,58.8,30.0,29.98,ENE,62,8.0,10.0,34,0.00,,,0.00,weatherlink.com 1.10,2013-05-22 16:46:00,
2013-05-22 10:01:00,59.9,30.0,29.97,South,172,3.0,13.0,32,0.00,,,0.00,weatherlink.com 1.10,2013-05-22 17:01:00,
2013-05-22 10:16:00,61.2,30.0,29.97,NW,326,3.0,13.0,31,0.00,,,0.00,weatherlink.com 1.10,2013-05-22 17:16:00,
2013-05-22 10:31:00,60.8,30.0,29.97,East,91,6.0,13.0,31,0.00,,,0.00,weatherlink.com 1.10,2013-05-22 17:31:00,
2013-05-22 10:46:00,61.3,29.0,29.97,ENE,75,5.0,10.0,29,0.00,,,0.00,weatherlink.com 1.10,2013-05-22 17:46:00,
2013-05-22 11:01:00,62.2,29.0,29.97,NE,42,3.0,10.0,29,0.00,,,0.00,weatherlink.com 1.10,2013-05-22 18:01:00,
2013-05-22 11:16:00,63.5,30.0,29.97,NNE,19,4.0,8.0,28,0.00,,,0.00,weatherlink.com 1.10,2013-05-22 18:16:00,
2013-05-22 11:32:00,63.7,32.0,29.96,NNE,30,3.0,10.0,30,0.00,,,0.00,weatherlink.com 1.10,2013-05-22 18:32:00,
2013-05-22 11:47:00,64.7,31.0,29.96,NNW,341,3.0,12.0,28,0.00,,,0.00,weatherlink.com 1.10,2013-05-22 18:47:00,
2013-05-22 12:17:00,65.3,35.0,29.95,North,6,3.0,8.0,32,0.00,,,0.00,weatherlink.com 1.10,2013-05-22 19:17:00,
2013-05-22 12:32:00,65.8,36.0,29.95,ENE,60,7.0,10.0,33,0.00,,,0.00,weatherlink.com 1.10,2013-05-22 19:32:00,
2013-05-22 12:47:00,66.0,37.0,29.94,NNE,30,2.0,7.0,35,0.00,,,0.00,weatherlink.com 1.10,2013-05-22 19:47:00,
2013-05-22 13:02:00,66.1,37.0,29.94,NE,39,6.0,11.0,34,0.00,,,0.00,weatherlink.com 1.10,2013-05-22 20:02:00,
2013-05-22 13:17:00,65.9,36.0,29.94,NE,44,2.0,9.0,33,0.00,,,0.00,weatherlink.com 1.10,2013-05-22 20:17:00,
2013-05-22 13:32:00,65.3,36.0,29.93,North,8,2.0,11.0,34,0.00,,,0.00,weatherlink.com 1.10,2013-05-22 20:32:00,
2013-05-22 13:47:00,65.4,36.0,29.93,East,89,1.0,10.0,34,0.00,,,0.00,weatherlink.com 1.10,2013-05-22 20:47:00,
2013-05-22 14:02:00,64.7,36.0,29.93,NE,55,4.0,12.0,34,0.00,,,0.00,weatherlink.com 1.10,2013-05-22 21:02:00,
2013-05-22 14:17:00,64.8,36.0,29.93,ENE,58,3.0,15.0,34,0.00,,,0.00,weatherlink.com 1.10,2013-05-22 21:17:00,
2013-05-22 14:32:00,64.2,35.0,29.93,NE,53,10.0,12.0,34,0.00,,,0.00,weatherlink.com 1.10,2013-05-22 21:32:00,
2013-05-22 14:47:00,64.4,37.0,29.93,East,82,2.0,10.0,36,0.00,,,0.00,weatherlink.com 1.10,2013-05-22 21:47:00,
2013-05-22 15:02:00,63.9,37.0,29.92,NE,37,3.0,13.0,37,0.00,,,0.00,weatherlink.com 1.10,2013-05-22 22:02:00,
2013-05-22 15:17:00,63.5,37.0,29.91,NE,45,2.0,13.0,38,0.00,,,0.00,weatherlink.com 1.10,2013-05-22 22:17:00,
2013-05-22 15:32:00,64.1,38.0,29.91,NNE,18,2.0,13.0,38,0.00,,,0.00,weatherlink.com 1.10,2013-05-22 22:32:00,
2013-05-22 15:47:00,63.6,39.0,29.91,ENE,60,11.0,15.0,40,0.00,,,0.00,weatherlink.com 1.10,2013-05-22 22:47:00,
2013-05-22 16:02:00,63.0,38.0,29.90,NNW,337,6.0,11.0,40,0.00,,,0.00,weatherlink.com 1.10,2013-05-22 23:02:00,
2013-05-22 16:17:00,63.3,39.0,29.89,NNE,23,6.0,13.0,41,0.00,,,0.00,weatherlink.com 1.10,2013-05-22 23:17:00,
2013-05-22 16:32:00,63.7,39.0,29.89,NE,48,2.0,10.0,41,0.00,,,0.00,weatherlink.com 1.10,2013-05-22 23:32:00,
2013-05-22 16:47:00,63.9,40.0,29.88,NE,46,9.0,9.0,42,0.00,,,0.00,weatherlink.com 1.10,2013-05-22 23:47:00,
2013-05-22 17:02:00,64.2,40.0,29.88,SE,140,2.0,8.0,42,0.00,,,0.00,weatherlink.com 1.10,2013-05-23 00:02:00,
2013-05-22 17:17:00,63.6,41.0,29.87,North,4,1.0,7.0,43,0.00,,,0.00,weatherlink.com 1.10,2013-05-23 00:17:00,
2013-05-22 17:32:00,62.8,41.0,29.87,NE,37,5.0,11.0,45,0.00,,,0.00,weatherlink.com 1.10,2013-05-23 00:32:00,
2013-05-22 17:47:00,61.9,41.0,29.87,NE,46,2.0,10.0,47,0.00,,,0.00,weatherlink.com 1.10,2013-05-23 00:47:00,
2013-05-22 18:02:00,61.3,41.0,29.86,NNE,18,3.0,11.0,48,0.00,,,0.00,weatherlink.com 1.10,2013-05-23 01:02:00,
2013-05-22 18:17:00,60.3,41.0,29.86,NE,53,3.0,11.0,50,0.00,,,0.00,weatherlink.com 1.10,2013-05-23 01:17:00,
2013-05-22 18:32:00,59.3,41.0,29.86,NE,52,2.0,9.0,52,0.00,,,0.00,weatherlink.com 1.10,2013-05-23 01:32:00,
2013-05-22 18:47:00,58.4,41.0,29.86,NE,43,4.0,9.0,53,0.00,,,0.00,weatherlink.com 1.10,2013-05-23 01:47:00,
2013-05-22 19:02:00,57.8,42.0,29.86,NE,56,0.0,8.0,55,0.00,,,0.00,weatherlink.com 1.10,2013-05-23 02:02:00,
2013-05-22 19:17:00,57.1,41.0,29.86,NE,51,1.0,9.0,56,0.00,,,0.00,weatherlink.com 1.10,2013-05-23 02:17:00,
2013-05-22 19:33:00,56.3,41.0,29.86,ENE,66,5.0,7.0,58,0.00,,,0.00,weatherlink.com 1.10,2013-05-23 02:33:00,
2013-05-22 19:47:00,55.5,42.0,29.86,NNE,28,4.0,7.0,60,0.00,,,0.00,weatherlink.com 1.10,2013-05-23 02:47:00,
2013-05-22 20:02:00,54.6,42.0,29.87,North,359,3.0,9.0,62,0.00,,,0.00,weatherlink.com 1.10,2013-05-23 03:02:00,
2013-05-22 20:17:00,53.9,41.0,29.86,NE,55,4.0,6.0,63,0.00,,,0.00,weatherlink.com 1.10,2013-05-23 03:17:00,
2013-05-22 20:32:00,53.4,41.0,29.86,ENE,63,0.0,3.0,64,0.00,,,0.00,weatherlink.com 1.10,2013-05-23 03:32:00,
2013-05-22 20:47:00,52.7,41.0,29.87,ESE,110,0.0,1.0,65,0.00,,,0.00,weatherlink.com 1.10,2013-05-23 03:47:00,
2013-05-22 21:02:00,52.0,41.0,29.87,NNE,31,0.0,5.0,66,0.00,,,0.00,weatherlink.com 1.10,2013-05-23 04:02:00,
2013-05-22 22:17:00,50.1,41.0,29.89,SSE,153,1.0,2.0,71,0.00,,,0.00,weatherlink.com 1.10,2013-05-23 05:17:00,
2013-05-22 22:32:00,49.8,41.0,29.89,WSW,239,0.0,2.0,71,0.00,,,0.00,weatherlink.com 1.10,2013-05-23 05:32:00,
2013-05-22 22:47:00,49.5,40.0,29.89,SSE,165,0.0,2.0,71,0.00,,,0.00,weatherlink.com 1.10,2013-05-23 05:47:00,
2013-05-22 23:02:00,49.6,41.0,29.88,ESE,120,0.0,3.0,71,0.00,,,0.00,weatherlink.com 1.10,2013-05-23 06:02:00,
2013-05-22 23:17:00,48.6,40.0,29.88,SSE,168,0.0,2.0,72,0.00,,,0.00,weatherlink.com 1.10,2013-05-23 06:17:00,
2013-05-22 23:32:00,48.3,40.0,29.88,SSE,165,0.0,1.0,74,0.00,,,0.00,weatherlink.com 1.10,2013-05-23 06:32:00,
2013-05-22 23:47:00,47.7,40.0,29.88,SE,143,0.0,1.0,75,0.00,,,0.00,weatherlink.com 1.10,2013-05-23 06:47:00,